Kahului, HI

1:49 AM HST on March 24, 2017 (GMT -1000)
Kahului

Weather History for PHOG - November, 2014

Change the Weather History Date:

Sunday, November 16, 2014

  Actual Average Record
Temperature  
Mean Temperature 73 °F 76 °F  
Max Temperature 79 °F 84 °F 91 °F (1957)
Min Temperature 67 °F 68 °F 60 °F (1964)
Degree Days  
Heating Degree Days 0 0  
Month to date heating degree days 0 0  
Since 1 July heating degree days 0 0  
Cooling Degree Days 8 11  
Month to date cooling degree days 200 186  
Year to date cooling degree days 4036 3562  
Growing Degree Days 22 (Base 50)    
Moisture  
Dew Point 66 °F    
Average Humidity 78    
Maximum Humidity 93    
Minimum Humidity 62    
Precipitation  
Precipitation 0.29 in 0.07 in 1.73 in (1950)
Month to date precipitation 0.81 1.01  
Year to date precipitation 18.06 13.29  
Snow  
Snow 0.00 in - - ()
Month to date snowfall 0.0  
Since 1 July snowfall 0.0  
Since 1 September snowfall 0.0  
Snow Depth 0.00 in    
Sea Level Pressure  
Sea Level Pressure 30.00 in    
Wind  
Wind Speed 9 mph (NNE)    
Max Wind Speed 21 mph    
Max Gust Speed 24 mph    
Visibility 10 miles    
Events Rain    
T = Trace of Precipitation, MM = Missing Value Source: NWS Daily Summary

Daily Weather History Graph

Daily Weather History Graph

Search for Another Location

Airport or City:

Trip Planner

Search our weather history database for the weather conditions in past years. The results will help you decide how hot, cold, wet, or windy it might be!

Date:

Astronomy

Nov. 16, 2014 Rise Set
Actual Time 6:36 AM HST 5:44 PM HST
Civil Twilight 6:13 AM HST 6:07 PM HST
Nautical Twilight 5:46 AM HST 6:34 PM HST
Astronomical Twilight 5:19 AM HST 7:01 PM HST
Moon 1:35 AM HST (11/16) 2:04 PM HST (11/16)
Length of Visible Light 11h 54m
Length of Day
11h 07m
Waning Crescent, 29% of the Moon is Illuminated
Nov 16
Waning Crescent
Nov 22
New
Nov 29
First Quarter
Dec 6
Full
Dec 14
Last Quarter

Hourly Weather History & Observations

Time (HST) Temp. Dew Point Humidity Pressure Visibility Wind Dir Wind Speed Gust Speed Precip Events Conditions
12:54 AM 68.0 °F 64.9 °F 90% 29.94 in 10.0 mi SSE 4.6 mph - N/A   Clear
1:54 AM 68.0 °F 64.9 °F 90% 29.93 in 10.0 mi South 5.8 mph - N/A   Clear
2:54 AM 66.9 °F 63.0 °F 87% 29.92 in 10.0 mi South 4.6 mph - N/A   Clear
3:54 AM 66.9 °F 62.1 °F 84% 29.93 in 10.0 mi South 5.8 mph - N/A   Mostly Cloudy
4:18 AM 66.2 °F 62.6 °F 88% 29.91 in 10.0 mi South 3.5 mph - N/A   Mostly Cloudy
4:51 AM 66.2 °F 62.6 °F 88% 29.92 in 10.0 mi Calm Calm - N/A   Scattered Clouds
4:54 AM 66.9 °F 63.0 °F 87% 29.94 in 10.0 mi SSE 3.5 mph - N/A   Scattered Clouds
5:54 AM 66.9 °F 64.9 °F 93% 29.95 in 10.0 mi Calm Calm - N/A   Scattered Clouds
6:54 AM 69.1 °F 66.9 °F 93% 29.97 in 10.0 mi Calm Calm - 0.00 in   Scattered Clouds
7:54 AM 73.0 °F 69.1 °F 87% 30.01 in 10.0 mi NNW 6.9 mph - N/A   Scattered Clouds
8:54 AM 71.1 °F 69.1 °F 93% 30.03 in 6.0 mi WNW 8.1 mph - 0.14 in Rain Light Rain
9:54 AM 73.9 °F 70.0 °F 87% 30.03 in 10.0 mi NW 8.1 mph - 0.02 in   Mostly Cloudy
10:54 AM 75.0 °F 70.0 °F 84% 30.03 in 4.0 mi SE 4.6 mph - 0.06 in Rain Light Rain
11:54 AM 73.9 °F 70.0 °F 87% 30.02 in 5.0 mi NW 8.1 mph - 0.01 in Rain Light Rain
12:54 PM 75.0 °F 69.1 °F 82% 30.00 in 10.0 mi North 16.1 mph - 0.06 in Rain Light Rain
1:54 PM 75.9 °F 69.1 °F 79% 29.98 in 10.0 mi North 10.4 mph - 0.00 in   Mostly Cloudy
2:04 PM 75.2 °F 68.0 °F 78% 29.97 in 10.0 mi North 10.4 mph - N/A   Mostly Cloudy
2:54 PM 78.1 °F 64.9 °F 64% 29.99 in 10.0 mi North 12.7 mph - N/A   Mostly Cloudy
3:54 PM 78.1 °F 64.9 °F 64% 30.00 in 10.0 mi North 15.0 mph - N/A   Overcast
4:54 PM 77.0 °F 66.0 °F 69% 30.02 in 10.0 mi NE 16.1 mph - N/A   Overcast
5:54 PM 73.9 °F 66.0 °F 76% 30.04 in 10.0 mi NNE 12.7 mph - 0.00 in Rain Light Rain
6:54 PM 75.9 °F 64.0 °F 67% 30.06 in 10.0 mi NNE 15.0 mph - 0.00 in   Mostly Cloudy
7:54 PM 77.0 °F 64.0 °F 64% 30.09 in 10.0 mi NNE 15.0 mph - N/A   Mostly Cloudy
8:54 PM 75.9 °F 64.0 °F 67% 30.10 in 10.0 mi NNE 15.0 mph - N/A   Mostly Cloudy
9:54 PM 75.9 °F 63.0 °F 64% 30.09 in 10.0 mi NE 12.7 mph - N/A   Mostly Cloudy
10:54 PM 75.0 °F 63.0 °F 66% 30.10 in 10.0 mi NE 13.8 mph - N/A   Scattered Clouds
11:54 PM 73.0 °F 63.0 °F 71% 30.09 in 10.0 mi ENE 6.9 mph - N/A   Partly Cloudy